Tracking 31027 objects as of 19-Jul-2025
HD Live streaming from Space Station
objects crossing your sky now

OBJECT A

Track OBJECT A now!
10-day predictions


NORAD ID: 56846
Int'l Code: 2023-081A
Perigee: 513.9 km
Apogee: 515.6 km
Inclination: 97.4 °
Period: 94.8 minutes
Semi major axis: 6885 km
RCS: Unknown
Launch date: June 7, 2023
Source: (TBD)
Launch site: Jiuquan Satellite Launch Center, China (JSC)
Your satellite tracking list
Your tracking list is empty




NASA's NSSDC Master Catalog

Two Line Element Set (TLE):
1 56846U 23081A   25199.88263147  .00008256  00000-0  39293-3 0  9998
2 56846  97.4106 271.0379 0001270  93.9490 266.1889 15.19411583117334
Source of the keplerian elements: AFSPC